TimeEST,TemperatureF,Dew PointF,Humidity,Sea Level PressureIn,VisibilityMPH,Wind Direction,Wind SpeedMPH,Gust SpeedMPH,PrecipitationIn,Events,Conditions,WindDirDegrees,DateUTC
12:51 AM,3.9,1.0,88,30.35,10.0,Calm,Calm,-,N/A,,Partly Cloudy,0,2013-02-11 05:51:00
1:51 AM,6.1,1.9,83,30.31,10.0,Calm,Calm,-,N/A,,Clear,0,2013-02-11 06:51:00
2:51 AM,3.9,1.9,91,30.29,10.0,Calm,Calm,-,N/A,,Clear,0,2013-02-11 07:51:00
3:51 AM,7.0,3.9,87,30.28,10.0,Calm,Calm,-,N/A,,Clear,0,2013-02-11 08:51:00
4:51 AM,10.0,6.1,84,30.25,10.0,Calm,Calm,-,N/A,,Clear,0,2013-02-11 09:51:00
5:51 AM,10.9,7.0,84,30.24,10.0,Calm,Calm,-,N/A,,Partly Cloudy,0,2013-02-11 10:51:00
6:51 AM,12.9,7.0,77,30.22,10.0,Calm,Calm,-,N/A,,Mostly Cloudy,0,2013-02-11 11:51:00
7:51 AM,16.0,8.1,71,30.19,9.0,Calm,Calm,-,N/A,,Overcast,0,2013-02-11 12:51:00
8:49 AM,15.8,10.4,79,30.14,1.8,Calm,Calm,-,0.01,Snow,Light Snow,0,2013-02-11 13:49:00
8:51 AM,16.0,10.0,77,30.16,1.2,Calm,Calm,-,0.01,Snow,Light Snow,0,2013-02-11 13:51:00
9:09 AM,17.6,12.2,79,30.12,0.5,Calm,Calm,-,0.01,Snow,Snow,0,2013-02-11 14:09:00
9:28 AM,17.6,15.8,93,30.10,1.5,Calm,Calm,-,0.03,Snow,Light Snow,0,2013-02-11 14:28:00
9:37 AM,19.4,15.8,86,30.09,2.5,Calm,Calm,-,0.04,Snow,Light Snow,0,2013-02-11 14:37:00
9:44 AM,19.4,15.8,86,30.09,1.8,Calm,Calm,-,0.04,Snow,Light Snow,0,2013-02-11 14:44:00
9:51 AM,19.0,16.0,88,30.11,1.8,Calm,Calm,-,0.04,Snow,Light Snow,0,2013-02-11 14:51:00
9:58 AM,19.4,15.8,86,30.09,3.0,WNW,3.5,-,0.00,Snow,Light Snow,290,2013-02-11 14:58:00
10:01 AM,19.4,15.8,86,30.09,2.5,West,4.6,-,0.00,Snow,Light Snow,280,2013-02-11 15:01:00
10:08 AM,19.4,15.8,86,30.08,1.2,Calm,Calm,-,0.00,Snow,Light Snow,0,2013-02-11 15:08:00
10:16 AM,19.4,15.8,86,30.08,0.5,Calm,Calm,-,0.01,Fog-Snow,Snow,0,2013-02-11 15:16:00
10:25 AM,19.4,17.6,93,30.06,0.2,Calm,Calm,-,0.02,Fog-Snow,Heavy Snow,0,2013-02-11 15:25:00
10:38 AM,19.4,17.6,93,30.05,0.5,Calm,Calm,-,0.05,Fog-Snow,Snow,0,2013-02-11 15:38:00
10:51 AM,19.9,18.0,92,30.07,0.5,Calm,Calm,-,0.06,Fog-Snow,Snow,0,2013-02-11 15:51:00
11:30 AM,21.2,19.4,93,29.99,1.0,Calm,Calm,-,0.05,Snow,Light Snow,0,2013-02-11 16:30:00
11:48 AM,21.2,19.4,93,29.97,1.2,NW,3.5,-,0.06,Snow,Light Snow,310,2013-02-11 16:48:00
11:51 AM,21.9,19.9,92,29.99,1.2,WNW,3.5,-,0.06,Snow,Light Snow,300,2013-02-11 16:51:00
12:10 PM,21.2,19.4,93,29.95,1.8,WNW,3.5,-,0.01,,Overcast,300,2013-02-11 17:10:00
12:21 PM,23.0,21.2,93,29.93,1.2,WNW,3.5,-,0.02,Rain,Light Freezing Rain,300,2013-02-11 17:21:00
12:39 PM,24.8,23.0,93,29.90,1.5,WNW,4.6,-,0.04,Rain,Light Freezing Rain,300,2013-02-11 17:39:00
12:51 PM,25.0,23.0,92,29.92,2.0,NW,4.6,-,0.05,Rain,Light Freezing Rain,310,2013-02-11 17:51:00
1:09 PM,24.8,23.0,93,29.87,2.5,NW,4.6,-,0.01,,Overcast,310,2013-02-11 18:09:00
1:18 PM,24.8,24.8,100,29.87,2.0,WNW,4.6,-,0.01,Rain,Light Freezing Rain,300,2013-02-11 18:18:00
1:46 PM,26.6,24.8,93,29.85,1.5,NNW,6.9,-,0.02,Rain,Light Freezing Rain,340,2013-02-11 18:46:00
1:51 PM,26.1,25.0,96,29.86,1.2,NNW,5.8,-,0.02,Rain,Light Freezing Rain,340,2013-02-11 18:51:00
2:14 PM,26.6,24.8,93,29.83,1.5,NW,4.6,-,0.00,Rain,Light Freezing Rain,320,2013-02-11 19:14:00
2:31 PM,26.6,24.8,93,29.82,1.2,NW,3.5,-,0.01,Rain,Light Freezing Rain,320,2013-02-11 19:31:00
2:51 PM,27.0,25.0,92,29.84,1.2,WNW,4.6,-,0.01,Rain,Light Freezing Rain,300,2013-02-11 19:51:00
3:02 PM,26.6,24.8,93,29.81,1.2,NW,4.6,-,0.00,Rain,Light Freezing Rain,310,2013-02-11 20:02:00
3:10 PM,26.6,26.6,100,29.81,1.5,NW,3.5,-,0.00,,Overcast,320,2013-02-11 20:10:00
3:30 PM,26.6,24.8,93,29.78,1.5,WNW,3.5,-,0.00,,Overcast,290,2013-02-11 20:30:00
3:51 PM,26.1,25.0,96,29.79,2.0,WNW,5.8,-,0.00,,Overcast,300,2013-02-11 20:51:00
4:01 PM,26.6,24.8,93,29.75,2.0,NW,5.8,-,N/A,,Overcast,320,2013-02-11 21:01:00
4:51 PM,26.1,25.0,96,29.74,2.5,NW,4.6,-,N/A,,Overcast,320,2013-02-11 21:51:00
5:49 PM,26.6,24.8,93,29.72,2.0,NW,6.9,-,N/A,,Overcast,320,2013-02-11 22:49:00
5:51 PM,26.1,25.0,96,29.74,2.0,NW,6.9,-,N/A,,Overcast,320,2013-02-11 22:51:00
6:08 PM,26.6,24.8,93,29.71,1.8,NNW,3.5,-,N/A,,Overcast,330,2013-02-11 23:08:00
6:38 PM,26.6,24.8,93,29.69,1.2,Calm,Calm,-,N/A,,Overcast,0,2013-02-11 23:38:00
6:51 PM,26.1,25.0,96,29.70,1.2,Calm,Calm,-,N/A,,Overcast,0,2013-02-11 23:51:00
6:59 PM,26.6,24.8,93,29.69,1.5,WNW,3.5,-,N/A,,Overcast,290,2013-02-11 23:59:00
7:25 PM,26.6,26.6,100,29.67,1.2,Calm,Calm,-,N/A,,Overcast,0,2013-02-12 00:25:00
7:44 PM,26.6,26.6,100,29.66,0.8,Calm,Calm,-,N/A,,Overcast,0,2013-02-12 00:44:00
7:51 PM,26.1,26.1,100,29.68,0.5,Calm,Calm,-,N/A,Fog,Light Freezing Fog,0,2013-02-12 00:51:00
8:00 PM,26.6,26.6,100,29.65,0.5,Calm,Calm,-,N/A,Fog,Light Freezing Fog,0,2013-02-12 01:00:00
8:51 PM,27.0,26.1,96,29.66,1.0,Calm,Calm,-,N/A,,Overcast,0,2013-02-12 01:51:00
9:05 PM,26.6,26.6,100,29.65,1.5,NW,5.8,-,N/A,,Overcast,320,2013-02-12 02:05:00
9:22 PM,26.6,26.6,100,29.65,1.2,Calm,Calm,-,N/A,,Overcast,0,2013-02-12 02:22:00
9:51 PM,27.0,26.1,96,29.65,1.2,Calm,Calm,-,N/A,,Overcast,0,2013-02-12 02:51:00
10:01 PM,26.6,26.6,100,29.63,1.5,Calm,Calm,-,N/A,,Overcast,0,2013-02-12 03:01:00
10:38 PM,26.6,26.6,100,29.62,1.0,Calm,Calm,-,N/A,,Overcast,0,2013-02-12 03:38:00
10:51 PM,27.0,26.1,96,29.65,0.8,Calm,Calm,-,N/A,,Overcast,0,2013-02-12 03:51:00
11:02 PM,26.6,26.6,100,29.62,1.5,NW,4.6,-,N/A,,Overcast,310,2013-02-12 04:02:00
11:09 PM,28.4,26.6,93,29.62,3.0,NW,4.6,-,N/A,,Overcast,310,2013-02-12 04:09:00
11:16 PM,28.4,26.6,93,29.62,4.0,WNW,4.6,-,N/A,,Overcast,300,2013-02-12 04:16:00
11:30 PM,28.4,26.6,93,29.62,4.0,NW,3.5,-,N/A,,Overcast,320,2013-02-12 04:30:00
11:51 PM,28.0,27.0,96,29.63,5.0,Calm,Calm,-,N/A,,Overcast,0,2013-02-12 04:51:00